Stations météo

Publicité
Montelimar, France (7577): Température de l'air & dewpoint: 15.10.2017 19:00:00 - 21.10.2017 19:00:00 (CEST)Montelimar, France (7577): Température de l'air 5cm: 15.10.2017 19:00:00 - 21.10.2017 19:00:00 (CEST)Montelimar, France (7577): Température de l'air -20cm & Température de l'air -100cm: 15.10.2017 19:00:00 - 21.10.2017 19:00:00 (CEST)Montelimar, France (7577): Vitesse du vent & gusts: 15.10.2017 19:00:00 - 21.10.2017 19:00:00 (CEST)Montelimar, France (7577): Direction du vent: 15.10.2017 19:00:00 - 21.10.2017 19:00:00 (CEST)Montelimar, France (7577): reduced air pressure: 15.10.2017 19:00:00 - 21.10.2017 19:00:00 (CEST)Montelimar, France (7577): visibility: 15.10.2017 19:00:00 - 21.10.2017 19:00:00 (CEST)Montelimar, France (7577): Ensoleillement: 15.10.2017 19:00:00 - 21.10.2017 19:00:00 (CEST)Montelimar, France (7577): Quantités de précipitations: 15.10.2017 19:00:00 - 21.10.2017 19:00:00 (CEST)
Date & Time tt [°C] td [°C] tt 5cm [°C] tt -20cm [°C] tt -100cm [°C] ff [km/h] ff [knt] fx [km/h] fx [knt] dd ppp [hPa] vv [km] sd [min] rr [mm]
21.10.2017 19:00:00 22,0 13,4 21,2 19,6 18,9 5 3 18 10 SSW 1018,0 20 0 0,0
21.10.2017 18:00:00 22,6 12,5 22,6 19,4 18,9 8 4 20 11 SSW 1017,7 20 17 0,0
21.10.2017 17:00:00 23,3 12,6 24,2 19,2 18,9 10 6 22 12 SSW 1018,0 20 30 0,0
21.10.2017 16:00:00 23,5 12,8 25,5 19,1 18,9 12 6 21 11 S 1018,0 20 44 0,0
21.10.2017 15:00:00 22,9 13,7 23,7 18,9 18,9 9 5 21 12 S 1018,7 20 20 0,0
21.10.2017 14:00:00 22,1 13,4 23,9 18,9 18,9 10 5 29 15 S 1019,5 20 33 0,0
21.10.2017 13:00:00 22,4 13,5 22,6 18,9 19,0 16 8 26 14 S 1020,3 20 34 0,0
21.10.2017 12:00:00 20,0 15,0 20,9 18,8 19,0 9 5 19 10 S 1020,8 19 5 0,0
21.10.2017 11:00:00 19,2 15,3 20,8 18,8 18,9 9 5 17 9 S 1020,8 15 13 0,0
21.10.2017 10:00:00 18,5 15,9 17,8 18,9 18,9 6 4 12 6 S 1020,7 8 4 0,0
21.10.2017 09:00:00 17,5 15,5 17,3 18,9 18,9 4 2 7 4 S 1020,7 7 0 0,0
21.10.2017 08:00:00 17,4 15,4 17,1 18,9 19,0 3 2 6 3 SSE 1020,1 6 0 0,0
21.10.2017 07:00:00 17,5 15,3 17,3 18,9 18,9 0 0 6 3 N 1019,7 7 0 0,0
21.10.2017 06:00:00 17,7 15,5 17,1 19,0 19,0 5 3 8 4 SSW 1019,5 8 0 0,0
21.10.2017 05:00:00 17,7 15,1 17,5 19,0 19,0 4 2 9 5 S 1019,5 10 0 0,0
21.10.2017 04:00:00 17,7 15,1 17,5 19,0 18,9 5 3 10 5 SSW 1019,9 11 0 0,0
21.10.2017 03:00:00 17,9 15,2 17,8 19,0 19,0 6 4 11 6 S 1020,2 12 0 0,0
21.10.2017 02:00:00 17,9 14,8 17,8 19,1 19,0 6 3 12 7 SSW 1020,4 15 0 0,0
21.10.2017 01:00:00 17,8 14,3 17,3 19,1 18,9 7 4 13 7 S 1020,4 17 0 0,0
21.10.2017 00:00:00 17,5 13,4 16,3 19,1 19,0 3 1 8 4 SW 1020,3 20 0 0,0
20.10.2017 23:00:00 18,1 13,4 17,1 19,1 19,0 5 3 13 7 S 1019,9 20 0 0,0
20.10.2017 22:00:00 19,0 13,4 18,4 19,1 19,0 8 5 12 7 S 1019,4 18 0 0,0
20.10.2017 21:00:00 19,2 13,4 18,7 19,0 19,0 7 4 11 6 S 1018,9 20 0 0,0
20.10.2017 20:00:00 19,7 13,2 19,0 18,9 19,0 6 4 9 5 S 1018,8 20 0 0,0
20.10.2017 19:00:00 20,6 12,8 19,2 18,8 19,0 4 2 12 6 SSW 1018,4 20 0 0,0
20.10.2017 18:00:00 22,0 12,8 22,4 18,6 18,9 5 3 13 7 SW 1018,2 20 4 0,0
20.10.2017 17:00:00 22,8 12,4 23,8 18,5 18,9 6 3 16 8 SW 1018,3 20 8 0,0
20.10.2017 16:00:00 23,3 12,3 24,1 18,4 19,0 8 4 17 9 SW 1018,1 20 21 0,0
20.10.2017 15:00:00 22,7 11,7 23,8 18,2 18,9 6 4 21 11 WSW 1018,3 20 11 0,0
20.10.2017 14:00:00 22,6 11,3 23,0 18,2 19,0 8 4 19 10 S 1018,5 20 19 0,0
20.10.2017 13:00:00 20,8 10,6 22,5 18,2 19,0 6 3 12 7 S 1019,0 20 0 0,0
20.10.2017 12:00:00 19,2 11,5 18,7 18,3 18,9 4 2 8 5 S 1019,1 20 2 0,0
20.10.2017 11:00:00 16,0 10,3 16,4 18,3 19,0 2 1 6 4 SW 1018,9 20 2 0,0
20.10.2017 10:00:00 14,7 9,5 14,3 18,4 18,9 2 1 5 3 WSW 1018,3 20 0 0,0
20.10.2017 09:00:00 13,7 9,5 12,9 18,5 18,9 2 1 4 2 SW 1017,8 19 0 0,0
20.10.2017 08:00:00 13,4 9,8 12,4 18,7 19,0 0 0 5 3 N 1017,0 20 0 0,2
20.10.2017 07:00:00 13,1 9,2 11,5 18,8 19,0 3 1 5 3 SSE 1016,6 20 0 0,0
20.10.2017 06:00:00 12,0 9,4 9,9 19,0 19,0 0 0 4 2 N 1016,2 20 0 0,0
20.10.2017 05:00:00 11,8 8,6 9,6 19,1 19,0 0 0 5 3 N 1016,2 20 0 0,0
20.10.2017 04:00:00 12,8 9,4 10,3 19,2 18,9 0 0 6 4 N 1016,0 20 0 0,0
20.10.2017 03:00:00 14,1 9,9 11,0 19,2 18,9 2 1 10 6 NNE 1015,7 20 0 0,0
20.10.2017 02:00:00 14,7 10,3 10,8 19,3 18,9 2 1 9 5 S 1014,8 20 0 0,0
20.10.2017 01:00:00 15,1 9,7 11,4 19,3 19,0 0 0 9 5 N 1014,3 20 0 0,0
20.10.2017 00:00:00 17,4 11,2 14,7 19,3 19,0 4 2 9 5 SW 1014,1 20 0 0,0
19.10.2017 23:00:00 18,9 11,2 18,1 19,3 19,0 5 3 10 5 SSE 1014,1 20 0 0,0
19.10.2017 22:00:00 20,0 11,2 19,3 19,3 19,0 5 3 15 8 S 1013,8 20 0 0,0
19.10.2017 21:00:00 20,4 11,6 19,9 19,2 19,0 9 5 18 10 SSW 1013,1 20 0 0,0
19.10.2017 20:00:00 20,9 11,8 20,1 19,1 19,0 7 4 19 11 SW 1012,5 20 0 0,0
19.10.2017 19:00:00 22,6 9,0 21,9 18,9 19,0 10 6 31 17 SSW 1011,8 20 0 0,0
19.10.2017 18:00:00 24,0 8,8 24,4 18,7 19,0 16 9 34 18 SSW 1011,1 20 31 0,0
19.10.2017 17:00:00 24,0 8,4 24,8 18,6 19,0 19 10 40 22 SSW 1011,0 20 1 0,0
19.10.2017 16:00:00 24,6 8,5 25,5 18,4 19,0 18 10 37 20 SSW 1011,3 20 10 0,0
19.10.2017 15:00:00 23,9 7,1 25,3 18,2 19,0 16 9 46 25 SSW 1011,6 20 35 0,0
19.10.2017 14:00:00 24,9 6,6 26,0 18,1 19,0 24 13 46 25 SSW 1012,3 20 60 0,0
19.10.2017 13:00:00 23,3 8,2 24,3 18,1 19,0 16 9 33 18 SSW 1013,2 20 40 0,0
19.10.2017 12:00:00 22,3 8,0 22,3 18,2 19,0 14 7 25 14 SSW 1013,4 20 55 0,0
19.10.2017 11:00:00 20,7 8,7 22,1 18,2 18,9 10 6 17 9 S 1013,7 20 60 0,0
19.10.2017 10:00:00 15,7 10,2 13,3 18,3 19,0 2 1 5 3 WSW 1014,2 20 46 0,0
19.10.2017 09:00:00 11,7 9,9 8,4 18,5 19,0 3 2 5 3 SE 1014,3 14 0 0,0
19.10.2017 08:00:00 11,6 9,0 8,5 18,6 19,0 0 0 4 2 N 1014,0 16 0 0,0
19.10.2017 07:00:00 13,2 9,8 10,7 18,6 19,0 0 0 8 4 N 1013,9 20 0 0,0
19.10.2017 06:00:00 14,1 10,3 12,9 18,7 19,0 5 3 9 5 SSE 1013,9 20 0 0,0
19.10.2017 05:00:00 14,1 10,7 12,3 18,8 19,0 2 1 6 3 W 1013,5 20 0 0,0
19.10.2017 04:00:00 15,1 10,9 13,4 18,9 19,0 0 0 7 4 N 1013,8 20 0 0,0
19.10.2017 03:00:00 15,6 11,4 14,3 18,9 19,0 2 1 5 3 SSW 1014,4 20 0 0,0
19.10.2017 02:00:00 15,6 11,2 13,4 19,0 19,0 3 2 8 4 E 1014,5 20 0 0,0
19.10.2017 01:00:00 15,6 11,4 13,4 19,0 19,0 4 2 7 4 E 1014,6 20 0 0,0
19.10.2017 00:00:00 16,3 11,9 13,5 19,0 19,0 4 2 14 8 E 1014,9 20 0 0,0
18.10.2017 23:00:00 18,3 12,7 17,3 19,0 19,0 7 4 19 10 SSW 1015,1 20 0 0,0
18.10.2017 22:00:00 19,4 13,3 18,3 18,9 19,0 12 7 24 13 SW 1015,1 20 0 0,0
18.10.2017 21:00:00 19,0 13,8 18,4 18,9 19,0 8 4 14 8 SW 1014,8 20 0 0,0
18.10.2017 20:00:00 19,1 13,9 18,5 18,7 19,0 6 4 27 14 SSW 1014,6 20 0 0,0
18.10.2017 19:00:00 21,0 12,9 19,2 18,6 19,0 14 7 27 14 SW 1013,7 20 0 0,0
18.10.2017 18:00:00 22,1 10,6 21,9 18,4 19,0 13 7 35 19 SSW 1013,4 20 0 0,0
18.10.2017 17:00:00 22,3 11,1 23,2 18,2 19,0 16 8 34 19 SSW 1013,8 20 2 0,0
18.10.2017 16:00:00 22,5 11,9 23,2 18,1 19,0 19 10 37 20 SSW 1014,5 20 5 0,0
18.10.2017 15:00:00 22,4 10,2 23,7 17,9 19,0 21 11 36 20 S 1015,1 20 2 0,0
18.10.2017 14:00:00 22,2 9,7 22,5 17,8 19,0 22 12 44 24 S 1015,8 20 30 0,0
18.10.2017 13:00:00 21,0 8,9 22,5 17,8 19,0 19 11 34 18 S 1017,0 20 58 0,0
18.10.2017 12:00:00 20,0 7,7 21,9 17,8 19,0 16 9 31 17 SSW 1017,7 20 31 0,0
18.10.2017 11:00:00 18,2 7,6 18,0 17,9 19,0 11 6 18 10 S 1018,0 19 56 0,0
18.10.2017 10:00:00 14,9 9,9 14,6 18,0 19,0 5 3 10 5 S 1018,5 20 41 0,0
18.10.2017 09:00:00 12,7 12,1 9,6 18,1 19,0 2 1 5 3 ESE 1018,4 4,9 26 0,0
18.10.2017 08:00:00 11,5 10,7 8,1 18,2 19,0 0 0 5 3 N 1018,3 1,5 0 0,0
18.10.2017 07:00:00 10,3 9,1 7,4 18,3 19,0 0 0 3 1 N 1018,6 0,1 0 0,0
18.10.2017 06:00:00 11,3 10,0 8,5 18,4 19,1 0 0 7 4 N 1019,1 0,6 0 0,0
18.10.2017 05:00:00 13,0 12,1 9,2 18,5 19,0 5 3 7 4 SSW 1019,6 2,4 0 0,0
18.10.2017 04:00:00 13,1 11,2 11,0 18,6 19,0 2 1 6 3 E 1020,0 1,1 0 0,0
18.10.2017 03:00:00 13,8 11,5 12,6 18,7 19,0 0 0 11 6 N 1020,7 2,9 0 0,0
18.10.2017 02:00:00 14,3 13,0 12,7 18,8 19,1 7 4 11 6 SW 1021,1 6 0 0,0
18.10.2017 01:00:00 14,5 12,4 13,4 18,9 19,1 8 4 13 7 SSW 1021,4 8 0 0,0
18.10.2017 00:00:00 15,0 12,3 14,0 18,9 19,1 6 3 14 8 S 1021,8 10 0 0,0
17.10.2017 23:00:00 15,3 11,9 14,1 18,9 19,1 4 2 13 7 S 1022,0 13 0 0,0
17.10.2017 22:00:00 15,7 11,1 11,8 18,9 19,1 6 4 10 5 SSW 1021,4 18 0 0,0
17.10.2017 21:00:00 17,1 10,7 15,9 18,8 19,1 5 3 13 7 S 1021,1 20 0 0,0
17.10.2017 20:00:00 18,2 10,6 17,2 18,6 19,1 9 5 13 7 SSE 1021,1 20 0 0,0
17.10.2017 19:00:00 20,3 10,1 19,2 18,4 19,1 8 5 21 11 S 1020,7 20 1 0,0
17.10.2017 18:00:00 22,2 9,7 22,3 18,2 19,1 14 8 30 16 S 1020,7 20 60 0,0
17.10.2017 17:00:00 23,0 10,1 26,1 18,0 19,1 16 9 33 18 SSW 1021,0 20 60 0,0
17.10.2017 16:00:00 22,9 10,7 26,2 17,8 19,1 18 10 32 17 S 1021,5 20 60 0,0
17.10.2017 15:00:00 22,5 10,9 26,0 17,7 19,1 16 9 29 15 S 1022,0 20 60 0,0
17.10.2017 14:00:00 21,2 11,5 24,3 17,6 19,1 16 8 29 16 S 1023,3 20 60 0,0
17.10.2017 13:00:00 19,8 12,1 20,2 17,6 19,1 16 9 28 15 S 1024,2 20 60 0,0
17.10.2017 12:00:00 14,5 12,7 13,8 17,7 19,1 5 3 10 6 S 1025,0 9 28 0,0
17.10.2017 11:00:00 11,3 10,8 12,4 17,8 19,1 3 2 8 4 SW 1025,7 0,8 0 0,0
17.10.2017 10:00:00 11,0 10,5 10,9 17,9 19,1 2 1 4 2 WSW 1025,9 1,1 0 0,0
17.10.2017 09:00:00 10,4 9,9 10,4 18,1 19,1 0 0 4 2 N 1025,9 0,1 0 0,0
17.10.2017 08:00:00 10,1 9,6 8,5 18,3 19,1 2 1 5 3 SW 1025,7 0,1 0 0,2
17.10.2017 07:00:00 8,0 7,2 4,5 18,5 19,1 0 0 0 0 N 1025,9 3,0 0 0,0
17.10.2017 06:00:00 7,0 5,3 4,9 18,7 19,1 0 0 3 2 N 1026,0 4,4 0 0,0
17.10.2017 05:00:00 8,2 7,1 5,4 18,9 19,1 0 0 3 1 N 1026,3 8 0 0,0
17.10.2017 04:00:00 8,8 7,4 6,2 19,0 19,1 0 0 3 1 N 1026,6 8 0 0,0
17.10.2017 03:00:00 8,9 7,3 6,2 19,1 19,1 0 0 3 2 N 1027,0 1,0 0 0,0
17.10.2017 02:00:00 9,5 7,9 6,7 19,3 19,1 0 0 3 1 N 1027,1 8 0 0,0
17.10.2017 01:00:00 10,5 8,8 7,6 19,4 19,1 2 1 3 2 NW 1027,2 15 0 0,0
17.10.2017 00:00:00 11,0 8,9 8,0 19,5 19,1 0 0 2 1 N 1027,2 8 0 0,0
16.10.2017 23:00:00 12,4 9,6 9,2 19,6 19,1 0 0 4 2 N 1027,0 20 0 0,0
16.10.2017 22:00:00 13,4 9,8 10,3 19,6 19,1 3 1 5 3 NW 1026,7 20 0 0,0
16.10.2017 21:00:00 16,0 9,9 11,4 19,5 19,1 2 1 9 5 W 1026,5 20 0 0,0
16.10.2017 20:00:00 17,5 10,6 13,4 19,3 19,1 2 1 7 4 SSW 1026,3 20 0 0,0
16.10.2017 19:00:00 20,8 10,9 18,4 19,1 19,1 4 2 17 9 SW 1025,8 20 1 0,0
16.10.2017 18:00:00 23,3 11,0 23,5 18,9 19,1 10 5 21 11 S 1025,6 20 60 0,0
16.10.2017 17:00:00 24,4 11,0 27,5 18,7 19,1 12 7 23 12 S 1025,7 20 60 0,0
16.10.2017 16:00:00 24,4 10,7 28,1 18,5 19,1 13 7 27 14 S 1026,0 20 60 0,0
16.10.2017 15:00:00 24,1 11,1 27,6 18,3 19,1 14 7 26 14 S 1026,6 20 60 0,0
16.10.2017 14:00:00 22,7 12,3 26,1 18,2 19,1 13 7 29 16 S 1027,5 20 60 0,0
16.10.2017 13:00:00 21,6 13,2 23,7 18,2 19,1 15 8 26 14 S 1028,3 20 53 0,0
16.10.2017 12:00:00 19,1 14,1 18,9 18,2 19,1 6 4 14 8 SW 1028,9 20 7 0,0
16.10.2017 11:00:00 17,3 13,8 17,7 18,2 19,1 8 4 18 10 SSW 1029,1 20 0 0,0
16.10.2017 10:00:00 16,5 14,0 16,3 18,3 19,1 5 3 13 7 S 1028,9 20 0 0,0
16.10.2017 09:00:00 15,5 13,5 15,1 18,3 19,1 4 2 8 4 S 1028,2 18 0 0,0
16.10.2017 08:00:00 14,8 12,7 15,0 18,4 19,1 4 2 8 4 SSE 1027,7 14 0 0,0
16.10.2017 07:00:00 14,8 13,0 14,6 18,5 19,1 4 2 7 4 S 1027,5 11 0 0,0
16.10.2017 06:00:00 14,6 13,5 13,9 18,7 19,1 0 0 11 6 N 1027,5 10 0 0,0
16.10.2017 05:00:00 13,3 12,7 10,1 18,8 19,1 2 1 4 2 S 1027,8 10 0 0,0
16.10.2017 04:00:00 11,1 9,8 8,1 18,9 19,1 0 0 2 1 N 1027,9 10 0 0,0
16.10.2017 03:00:00 11,5 10,1 8,5 19,1 19,1 0 0 5 3 N 1028,2 0,4 0 0,0
16.10.2017 02:00:00 11,8 10,0 8,7 19,1 19,1 0 0 4 2 N 1028,2 9 0 0,0
16.10.2017 01:00:00 12,5 10,6 9,6 19,2 19,1 0 0 4 2 N 1028,4 2,7 0 0,0
16.10.2017 00:00:00 13,5 11,0 10,6 19,3 19,2 0 0 5 3 N 1028,4 17 0 0,0
15.10.2017 23:00:00 15,3 11,5 11,5 19,3 19,1 4 2 10 5 S 1028,2 20 0 0,0
15.10.2017 22:00:00 15,3 10,9 12,1 19,2 19,2 3 1 5 3 W 1027,8 20 0 0,0
15.10.2017 21:00:00 18,1 10,7 14,0 19,1 19,1 4 2 10 5 S 1027,4 20 0 0,0
15.10.2017 20:00:00 19,3 11,3 14,9 18,9 19,2 3 2 8 5 SSW 1027,2 20 0 0,0
15.10.2017 19:00:00 22,3 11,7 21,1 18,7 19,2 7 4 20 11 S 1026,5 20 1 0,0

tt = Température de l'air
td = dewpoint
tt 5cm = Température de l'air 5cm
tt -20cm = Température de l'air -20cm
tt -100cm = Température de l'air -100cm
ff = Vitesse du vent
fx = gusts
dd = Direction du vent
ppp = reduced air pressure
vv = visibility
sd = Ensoleillement
rr = Quantités de précipitations

stations d'obs. à proximité